Regional Weather Roundup
Issued by NWS Sioux Falls, SD

Home | Current Version | Previous Version | Graphics & Text | Print | Product List | Glossary On
Versions: 1 2 3 4 5 6 7 8 9 10 11 12 13 14 15 16 17 18 19 20 21 22 23 24 25 26 27 28 29 30 31 32 33 34 35 36 37 38 39 40 41 42 43 44 45 46 47 48 49 50
000
ASUS43 KFSD 300302
RWRFSD

WEATHER ROUNDUP FOR SE SOUTH DAKOTA/SW MINNESOTA/NW IOWA
NATIONAL WEATHER SERVICE SIOUX FALLS SD
1000 PM CDT SAT AUG 29 2015

NOTE: "FAIR" INDICATES FEW OR NO CLOUDS BELOW 12,000 FEET WITH NO
SIGNIFICANT WEATHER AND OR OBSTRUCTIONS TO VISIBILITY.


SDZ038>040-050-052>070-300400-
SOUTHEAST SOUTH DAKOTA

CITY           SKY/WX    TMP DP  RH WIND       PRES   REMARKS
BROOKINGS      CLEAR     64  61  88 SE9       30.01S
CHAMBERLAIN    CLEAR     69  65  89 SE6       29.94R
HURON          CLEAR     70  66  87 SE13      29.93R
MADISON        FAIR      64  64 100 S12       30.00S
MITCHELL       CLEAR     69  67  93 S13       29.96R
SIOUX FALLS    PTCLDY    66  63  90 S8        30.01S
WINNER         FAIR      77  63  61 S14       29.95R
YANKTON        CLEAR     66  64  94 SE7       30.00R
$$

MNZ071-072-080-081-089-090-097-098-300400-
SOUTHWEST MINNESOTA

CITY           SKY/WX    TMP DP  RH WIND       PRES   REMARKS
FAIRMONT       CLEAR     61  55  82 S6        30.04R
JACKSON        CLEAR     63  63 100 S8        30.04F
LUVERNE        CLEAR     64  61  88 S5        30.03S
MARSHALL       CLEAR     66  61  82 S7        30.00S
MONTEVIDEO     CLEAR     66  64  94 S6        29.99S
PIPESTONE      CLEAR     64  63  94 S7        30.02S
REDWOOD FALLS  CLEAR     64  63  96 SE8       30.00R
TRACY          PTCLDY    68  65  90 S12       30.00S
WINDOM         CLEAR     66  63  88 S7        30.02F
WORTHINGTON    CLEAR     63  59  88 S8        30.03F
$$

IAZ001>003-012>014-020>022-031-032-NEZ013-014-SDZ071-300400-
NORTHWEST IOWA

CITY           SKY/WX    TMP DP  RH WIND       PRES   REMARKS
DENISON        CLOUDY    64  63  94 S8        30.05S
ESTHERVILLE    CLEAR     60  59  96 S8        30.05R
SIOUX CITY     NOT AVBL
SPENCER        PTCLDY    62  59  90 S6        30.05S
$$

ABBREVIATIONS USED IN REMARKS
   TC - TEMPERATURE IN CELSIUS
  WCI - WIND CHILL INDEX
   HX - HEAT INDEX
  VSB - VISIBILITY




USA.gov is the U.S. government's official web portal to all federal, state and local government web resources and services.